Back to catalog

OPS 4682 DEB

AlivePO
NORAD 38391·DEBRIS·🇺🇸 United States

Launched Apr 3, 1965 from Vandenberg Space Force Base

Loading…

Next Passes (next 24 hours)

TLE

StaleSource: Space-Track

Epoch: Aug 25, 2026, 07:41 UTC

1 38391U 65027CU  26237.32041073 -.00000393  00000-0 -13562-2 0  9990
2 38391  90.2289   9.3331 0042909 225.5684 134.1924 12.98464640608744

Track OPS 4682 DEB in real time with AllMySat

Download on the App Store